| time (UTC) | temp F | wind direction | speed MPH | gust MPH | rain 1hr in | rain 24hr in | rain mn in | humidity % | barometer mb |
| 20260905025403 | 68 | 121 | 2.0 | 2.0 | 0.00 | 0.00 | 0.00 | 52 | 1015.1 |
| 20260905024503 | 68 | 108 | 2.0 | 3.0 | 0.00 | 0.00 | 0.00 | 52 | 1015.2 |
| 20260905023603 | 68 | 88 | 0.0 | 2.0 | 0.00 | 0.00 | 0.00 | 53 | 1015.1 |
| 20260905022703 | 68 | 0 | 0.0 | 0.0 | 0.00 | 0.00 | 0.00 | 54 | 1015.2 |
| 20260905021804 | 67 | 0 | 0.0 | 0.0 | 0.00 | 0.00 | 0.00 | 56 | 1015.3 |
| 20260905020903 | 67 | 145 | 0.0 | 2.0 | 0.00 | 0.00 | 0.00 | 58 | 1015.2 |
| 20260905020004 | 67 | 0 | 0.0 | 0.0 | 0.00 | 0.00 | 0.00 | 59 | 1015.3 |
| 20260905015616 | 67 | 0 | 0.0 | 0.0 | 0.00 | 0.00 | 0.00 | 60 | 1015.4 |
| 20260905014718 | 67 | 118 | 1.0 | 2.0 | 0.00 | 0.00 | 0.00 | 60 | 1015.4 |
| 20260905013603 | 67 | 122 | 1.0 | 2.0 | 0.00 | 0.00 | 0.00 | 60 | 1015.3 |
| 20260905012703 | 67 | 119 | 0.0 | 2.0 | 0.00 | 0.00 | 0.00 | 60 | 1015.5 |
| 20260905011803 | 67 | 112 | 0.0 | 1.0 | 0.00 | 0.00 | 0.00 | 60 | 1015.6 |
| 20260905010903 | 67 | 112 | 0.0 | 1.0 | 0.00 | 0.00 | 0.00 | 60 | 1015.5 |
| 20260905010004 | 67 | 0 | 0.0 | 0.0 | 0.00 | 0.00 | 0.00 | 61 | 1015.5 |
| 20260905005403 | 67 | 104 | 0.0 | 2.0 | 0.00 | 0.00 | 0.00 | 62 | 1015.6 |
| 20260905004503 | 67 | 115 | 1.0 | 2.0 | 0.00 | 0.00 | 0.00 | 62 | 1015.6 |
| 20260905003603 | 67 | 132 | 0.0 | 2.0 | 0.00 | 0.00 | 0.00 | 63 | 1015.7 |
| 20260905002703 | 67 | 137 | 0.0 | 2.0 | 0.00 | 0.00 | 0.00 | 64 | 1015.9 |
| 20260905001803 | 67 | 149 | 0.0 | 4.0 | 0.00 | 0.00 | 0.00 | 64 | 1016.0 |
| 20260905000904 | 67 | 172 | 1.0 | 4.0 | 0.00 | 0.00 | 0.00 | 65 | 1016.1 |
| 20260905000003 | 67 | 182 | 1.0 | 4.0 | 0.00 | 0.00 | 0.00 | 65 | 1016.0 |
| 20260904235403 | 67 | 200 | 1.0 | 4.0 | 0.00 | 0.00 | 0.00 | 66 | 1016.3 |
| 20260904234503 | 68 | 188 | 1.0 | 3.0 | 0.00 | 0.00 | 0.00 | 65 | 1016.4 |
| 20260904233603 | 68 | 203 | 1.0 | 5.0 | 0.00 | 0.00 | 0.00 | 65 | 1016.4 |
| 20260904232708 | 68 | 203 | 1.0 | 4.0 | 0.00 | 0.00 | 0.00 | 65 | 1016.6 |
| 20260904231803 | 68 | 220 | 2.0 | 7.0 | 0.00 | 0.00 | 0.00 | 65 | 1016.6 |
| 20260904230903 | 69 | 213 | 3.0 | 7.0 | 0.00 | 0.00 | 0.00 | 65 | 1016.5 |
| 20260904230004 | 68 | 217 | 3.0 | 7.0 | 0.00 | 0.00 | 0.00 | 66 | 1016.6 |
| 20260904225403 | 68 | 212 | 2.0 | 7.0 | 0.00 | 0.00 | 0.00 | 67 | 1016.5 |
| 20260904224503 | 68 | 203 | 0.0 | 3.0 | 0.00 | 0.00 | 0.00 | 67 | 1016.6 |
| 20260904223603 | 68 | 228 | 1.0 | 3.0 | 0.00 | 0.00 | 0.00 | 66 | 1016.5 |
| 20260904222703 | 68 | 179 | 0.0 | 3.0 | 0.00 | 0.00 | 0.00 | 67 | 1016.6 |
| 20260904221803 | 68 | 209 | 0.0 | 4.0 | 0.00 | 0.00 | 0.00 | 67 | 1016.5 |
| 20260904220903 | 68 | 223 | 0.0 | 3.0 | 0.00 | 0.00 | 0.00 | 67 | 1016.6 |
| 20260904220005 | 68 | 247 | 0.0 | 2.0 | 0.00 | 0.00 | 0.00 | 67 | 1016.6 |
| 20260904215403 | 68 | 255 | 0.0 | 2.0 | 0.00 | 0.00 | 0.00 | 66 | 1016.5 |
| 20260904214503 | 69 | 250 | 1.0 | 3.0 | 0.00 | 0.00 | 0.00 | 66 | 1016.6 |
| 20260904213818 | 69 | 219 | 0.0 | 3.0 | 0.00 | 0.00 | 0.00 | 66 | 1016.7 |
| 20260904212703 | 69 | 252 | 1.0 | 3.0 | 0.00 | 0.00 | 0.00 | 66 | 1016.5 |
| 20260904212016 | 69 | 249 | 1.0 | 4.0 | 0.00 | 0.00 | 0.00 | 66 | 1016.6 |
| 20260904211118 | 68 | 297 | 0.0 | 3.0 | 0.00 | 0.00 | 0.00 | 67 | 1016.6 |
| 20260904210004 | 69 | 224 | 1.0 | 6.0 | 0.00 | 0.00 | 0.00 | 67 | 1016.9 |
| 20260904205403 | 69 | 235 | 0.0 | 3.0 | 0.00 | 0.00 | 0.00 | 67 | 1016.7 |
| 20260904204503 | 69 | 241 | 1.0 | 4.0 | 0.00 | 0.00 | 0.00 | 66 | 1016.7 |
| 20260904203603 | 69 | 249 | 1.0 | 3.0 | 0.00 | 0.00 | 0.00 | 66 | 1016.7 |
| 20260904202917 | 69 | 254 | 1.0 | 5.0 | 0.00 | 0.00 | 0.00 | 66 | 1016.7 |
| 20260904201803 | 70 | 254 | 2.0 | 6.0 | 0.00 | 0.00 | 0.00 | 66 | 1016.8 |
| 20260904200903 | 70 | 253 | 2.0 | 8.0 | 0.00 | 0.00 | 0.00 | 66 | 1016.9 |
| 20260904200003 | 69 | 270 | 0.0 | 1.0 | 0.00 | 0.00 | 0.00 | 67 | 1016.9 |
| 20260904195403 | 69 | 155 | 1.0 | 3.0 | 0.00 | 0.00 | 0.00 | 67 | 1016.9 |
| 20260904194718 | 69 | 134 | 1.0 | 3.0 | 0.00 | 0.00 | 0.00 | 67 | 1016.9 |
| 20260904193603 | 70 | 134 | 1.0 | 3.0 | 0.00 | 0.00 | 0.00 | 66 | 1017.0 |
| 20260904192703 | 70 | 129 | 1.0 | 3.0 | 0.00 | 0.00 | 0.00 | 67 | 1017.0 |
| 20260904191803 | 69 | 114 | 0.0 | 2.0 | 0.00 | 0.00 | 0.00 | 67 | 1017.0 |
| 20260904190903 | 69 | 89 | 1.0 | 4.0 | 0.00 | 0.00 | 0.00 | 67 | 1016.9 |
| 20260904190004 | 69 | 52 | 1.0 | 3.0 | 0.00 | 0.00 | 0.00 | 67 | 1017.0 |
| 20260904185403 | 69 | 42 | 1.0 | 4.0 | 0.00 | 0.00 | 0.00 | 67 | 1017.0 |
| 20260904184503 | 69 | 61 | 1.0 | 3.0 | 0.00 | 0.00 | 0.00 | 67 | 1017.0 |
| 20260904183603 | 70 | 88 | 1.0 | 4.0 | 0.00 | 0.00 | 0.00 | 66 | 1016.9 |
| 20260904182703 | 70 | 113 | 2.0 | 4.0 | 0.00 | 0.00 | 0.00 | 66 | 1016.9 |
| 20260904182017 | 71 | 159 | 1.0 | 4.0 | 0.00 | 0.00 | 0.00 | 65 | 1016.9 |
| 20260904180903 | 71 | 182 | 3.0 | 6.0 | 0.00 | 0.00 | 0.00 | 65 | 1016.8 |
| 20260904180004 | 71 | 185 | 3.0 | 7.0 | 0.00 | 0.00 | 0.00 | 64 | 1016.7 |
| 20260904175403 | 71 | 187 | 4.0 | 7.0 | 0.00 | 0.00 | 0.00 | 64 | 1016.7 |
| 20260904174503 | 72 | 183 | 3.0 | 8.0 | 0.00 | 0.00 | 0.00 | 64 | 1016.7 |
| 20260904173603 | 72 | 191 | 4.0 | 8.0 | 0.00 | 0.00 | 0.00 | 63 | 1016.6 |
| 20260904172703 | 73 | 190 | 4.0 | 10.0 | 0.00 | 0.00 | 0.00 | 62 | 1016.9 |
| 20260904172017 | 73 | 190 | 5.0 | 8.0 | 0.00 | 0.00 | 0.00 | 62 | 1016.8 |
| 20260904170903 | 74 | 212 | 4.0 | 9.0 | 0.00 | 0.00 | 0.00 | 61 | 1016.9 |
| 20260904170004 | 75 | 213 | 5.0 | 10.0 | 0.00 | 0.00 | 0.00 | 60 | 1016.9 |
| 20260904165403 | 75 | 222 | 5.0 | 10.0 | 0.00 | 0.00 | 0.00 | 59 | 1016.9 |
| 20260904164503 | 76 | 241 | 6.0 | 11.0 | 0.00 | 0.00 | 0.00 | 59 | 1016.9 |
| 20260904163603 | 76 | 231 | 5.0 | 12.0 | 0.00 | 0.00 | 0.00 | 58 | 1016.9 |
| 20260904162917 | 77 | 238 | 6.0 | 13.0 | 0.00 | 0.00 | 0.00 | 58 | 1016.9 |
| 20260904161803 | 77 | 241 | 6.0 | 11.0 | 0.00 | 0.00 | 0.00 | 57 | 1017.0 |
| 20260904160903 | 78 | 244 | 5.0 | 11.0 | 0.00 | 0.00 | 0.00 | 56 | 1017.0 |
| 20260904160003 | 78 | 252 | 6.0 | 12.0 | 0.00 | 0.00 | 0.00 | 56 | 1017.0 |
| 20260904155403 | 78 | 246 | 6.0 | 12.0 | 0.00 | 0.00 | 0.00 | 56 | 1017.0 |
| 20260904154716 | 78 | 250 | 7.0 | 11.0 | 0.00 | 0.00 | 0.00 | 56 | 1017.0 |
| 20260904153817 | 79 | 234 | 6.0 | 11.0 | 0.00 | 0.00 | 0.00 | 55 | 1017.1 |
| 20260904152703 | 79 | 225 | 6.0 | 11.0 | 0.00 | 0.00 | 0.00 | 55 | 1017.2 |
| 20260904151803 | 79 | 248 | 7.0 | 11.0 | 0.00 | 0.00 | 0.00 | 54 | 1017.3 |
| 20260904150903 | 80 | 232 | 6.0 | 11.0 | 0.00 | 0.00 | 0.00 | 54 | 1017.4 |
| 20260904150004 | 79 | 238 | 7.0 | 17.0 | 0.00 | 0.00 | 0.00 | 55 | 1017.5 |
| 20260904145616 | 79 | 225 | 8.0 | 17.0 | 0.00 | 0.00 | 0.00 | 55 | 1017.5 |
| 20260904144503 | 79 | 210 | 7.0 | 13.0 | 0.00 | 0.00 | 0.00 | 53 | 1017.8 |
| 20260904143603 | 80 | 248 | 7.0 | 16.0 | 0.00 | 0.00 | 0.00 | 53 | 1018.0 |
| 20260904142703 | 80 | 257 | 6.0 | 12.0 | 0.00 | 0.00 | 0.00 | 53 | 1017.9 |
| 20260904141803 | 79 | 235 | 8.0 | 17.0 | 0.00 | 0.00 | 0.00 | 55 | 1018.0 |
| 20260904140903 | 79 | 230 | 7.0 | 14.0 | 0.00 | 0.00 | 0.00 | 54 | 1018.1 |
| 20260904140004 | 79 | 238 | 8.0 | 16.0 | 0.00 | 0.00 | 0.00 | 54 | 1018.1 |
| 20260904135618 | 80 | 244 | 7.0 | 16.0 | 0.00 | 0.00 | 0.00 | 53 | 1018.2 |
| 20260904134503 | 79 | 226 | 9.0 | 16.0 | 0.00 | 0.00 | 0.00 | 54 | 1017.9 |
| 20260904133603 | 79 | 206 | 7.0 | 16.0 | 0.00 | 0.00 | 0.00 | 55 | 1018.0 |
| 20260904132703 | 80 | 234 | 7.0 | 13.0 | 0.00 | 0.00 | 0.00 | 54 | 1018.1 |
| 20260904131803 | 80 | 227 | 6.0 | 13.0 | 0.00 | 0.00 | 0.00 | 54 | 1018.1 |
| 20260904130903 | 80 | 227 | 6.0 | 12.0 | 0.00 | 0.00 | 0.00 | 55 | 1018.0 |
| 20260904130003 | 80 | 185 | 6.0 | 13.0 | 0.00 | 0.00 | 0.00 | 55 | 1018.1 |
| 20260904125403 | 80 | 197 | 6.0 | 13.0 | 0.00 | 0.00 | 0.00 | 54 | 1018.3 |
| 20260904124503 | 80 | 236 | 6.0 | 13.0 | 0.00 | 0.00 | 0.00 | 54 | 1018.4 |
| 20260904123603 | 80 | 245 | 7.0 | 13.0 | 0.00 | 0.00 | 0.00 | 54 | 1018.4 |
| 20260904122918 | 80 | 251 | 7.0 | 13.0 | 0.00 | 0.00 | 0.00 | 54 | 1018.4 |
| 20260904121803 | 81 | 256 | 5.0 | 10.0 | 0.00 | 0.00 | 0.00 | 54 | 1018.7 |
| 20260904120903 | 80 | 237 | 6.0 | 12.0 | 0.00 | 0.00 | 0.00 | 55 | 1018.8 |
| 20260904120004 | 80 | 239 | 6.0 | 11.0 | 0.00 | 0.00 | 0.00 | 55 | 1018.8 |
| 20260904115403 | 80 | 239 | 7.0 | 15.0 | 0.00 | 0.00 | 0.00 | 55 | 1018.8 |
| 20260904114503 | 80 | 244 | 5.0 | 15.0 | 0.00 | 0.00 | 0.00 | 55 | 1018.9 |
| 20260904113818 | 79 | 225 | 7.0 | 15.0 | 0.00 | 0.00 | 0.00 | 55 | 1019.1 |
| 20260904112703 | 79 | 221 | 6.0 | 11.0 | 0.00 | 0.00 | 0.00 | 55 | 1018.9 |
| 20260904112017 | 80 | 211 | 5.0 | 11.0 | 0.00 | 0.00 | 0.00 | 54 | 1018.9 |
| 20260904110903 | 79 | 221 | 5.0 | 13.0 | 0.00 | 0.00 | 0.00 | 55 | 1018.9 |
| 20260904110004 | 79 | 221 | 5.0 | 10.0 | 0.00 | 0.00 | 0.00 | 55 | 1018.9 |
| 20260904105617 | 79 | 231 | 5.0 | 10.0 | 0.00 | 0.00 | 0.00 | 54 | 1018.9 |
| 20260904104504 | 79 | 262 | 5.0 | 11.0 | 0.00 | 0.00 | 0.00 | 55 | 1019.1 |
| 20260904103603 | 79 | 255 | 5.0 | 11.0 | 0.00 | 0.00 | 0.00 | 55 | 1019.1 |
| 20260904102917 | 79 | 246 | 3.0 | 7.0 | 0.00 | 0.00 | 0.00 | 54 | 1019.1 |
| 20260904101803 | 79 | 257 | 3.0 | 6.0 | 0.00 | 0.00 | 0.00 | 54 | 1019.1 |
| 20260904100903 | 81 | 279 | 1.0 | 3.0 | 0.00 | 0.00 | 0.00 | 53 | 1019.1 |
| 20260904100003 | 80 | 272 | 2.0 | 7.0 | 0.00 | 0.00 | 0.00 | 54 | 1019.1 |
| 20260904095403 | 79 | 275 | 2.0 | 7.0 | 0.00 | 0.00 | 0.00 | 54 | 1019.3 |
| 20260904094503 | 79 | 288 | 1.0 | 7.0 | 0.00 | 0.00 | 0.00 | 55 | 1019.2 |
| 20260904093603 | 79 | 281 | 1.0 | 4.0 | 0.00 | 0.00 | 0.00 | 55 | 1019.2 |
| 20260904092703 | 78 | 281 | 1.0 | 3.0 | 0.00 | 0.00 | 0.00 | 55 | 1019.2 |
| 20260904091803 | 77 | 274 | 1.0 | 3.0 | 0.00 | 0.00 | 0.00 | 57 | 1019.1 |
| 20260904090903 | 78 | 284 | 0.0 | 4.0 | 0.00 | 0.00 | 0.00 | 58 | 1019.2 |
| 20260904090219 | 77 | 261 | 1.0 | 4.0 | 0.00 | 0.00 | 0.00 | 59 | 1019.1 |
| 20260904085403 | 76 | 260 | 2.0 | 4.0 | 0.00 | 0.00 | 0.00 | 59 | 1019.1 |
| 20260904084503 | 75 | 245 | 3.0 | 5.0 | 0.00 | 0.00 | 0.00 | 59 | 1019.1 |
| 20260904083603 | 75 | 244 | 3.0 | 5.0 | 0.00 | 0.00 | 0.00 | 59 | 1018.8 |
| 20260904082703 | 75 | 240 | 3.0 | 6.0 | 0.00 | 0.00 | 0.00 | 58 | 1018.9 |
| 20260904081803 | 75 | 240 | 3.0 | 5.0 | 0.00 | 0.00 | 0.00 | 58 | 1018.8 |
| 20260904080903 | 75 | 240 | 3.0 | 6.0 | 0.00 | 0.00 | 0.00 | 58 | 1018.7 |
| 20260904080004 | 75 | 242 | 1.0 | 2.0 | 0.00 | 0.00 | 0.00 | 57 | 1018.7 |
| 20260904075403 | 74 | 237 | 1.0 | 4.0 | 0.00 | 0.00 | 0.00 | 58 | 1018.6 |
| 20260904074503 | 74 | 241 | 1.0 | 4.0 | 0.00 | 0.00 | 0.00 | 58 | 1018.6 |
| 20260904073603 | 73 | 256 | 1.0 | 5.0 | 0.00 | 0.00 | 0.00 | 59 | 1018.7 |
| 20260904072918 | 73 | 256 | 1.0 | 5.0 | 0.00 | 0.00 | 0.00 | 60 | 1018.6 |
| 20260904071804 | 72 | 236 | 1.0 | 3.0 | 0.00 | 0.00 | 0.00 | 58 | 1018.6 |
| 20260904070903 | 74 | 84 | 3.0 | 9.0 | 0.00 | 0.00 | 0.00 | 55 | 1018.6 |
| 20260904070004 | 73 | 84 | 6.0 | 11.0 | 0.00 | 0.00 | 0.00 | 55 | 1018.4 |
| 20260904065403 | 72 | 85 | 7.0 | 11.0 | 0.00 | 0.00 | 0.00 | 56 | 1018.4 |
| 20260904064717 | 72 | 83 | 8.0 | 13.0 | 0.00 | 0.00 | 0.00 | 56 | 1018.5 |
| 20260904063603 | 72 | 88 | 6.0 | 11.0 | 0.00 | 0.00 | 0.00 | 58 | 1018.3 |
| 20260904062917 | 71 | 82 | 3.0 | 11.0 | 0.00 | 0.00 | 0.00 | 58 | 1018.3 |
| 20260904061803 | 71 | 84 | 4.0 | 11.0 | 0.00 | 0.00 | 0.00 | 59 | 1018.5 |
| 20260904061118 | 69 | 88 | 2.0 | 9.0 | 0.00 | 0.00 | 0.00 | 61 | 1018.3 |
| 20260904060003 | 70 | 74 | 4.0 | 12.0 | 0.00 | 0.00 | 0.00 | 60 | 1018.4 |
| 20260904055403 | 70 | 75 | 7.0 | 12.0 | 0.00 | 0.00 | 0.00 | 59 | 1018.2 |
| 20260904054503 | 69 | 78 | 7.0 | 12.0 | 0.00 | 0.00 | 0.00 | 60 | 1018.2 |
| 20260904053603 | 68 | 67 | 6.0 | 11.0 | 0.00 | 0.00 | 0.00 | 62 | 1018.2 |
| 20260904052703 | 67 | 61 | 2.0 | 8.0 | 0.00 | 0.00 | 0.00 | 62 | 1018.1 |
| 20260904051803 | 67 | 61 | 0.0 | 3.0 | 0.00 | 0.00 | 0.00 | 62 | 1018.1 |
| 20260904050903 | 67 | 315 | 0.0 | 2.0 | 0.00 | 0.00 | 0.00 | 63 | 1017.9 |
| 20260904050004 | 67 | 299 | 1.0 | 2.0 | 0.00 | 0.00 | 0.00 | 63 | 1017.8 |
| 20260904045403 | 68 | 12 | 1.0 | 4.0 | 0.00 | 0.00 | 0.00 | 63 | 1018.0 |
| 20260904044718 | 67 | 351 | 2.0 | 4.0 | 0.00 | 0.00 | 0.00 | 63 | 1018.0 |
| 20260904043603 | 66 | 73 | 2.0 | 3.0 | 0.00 | 0.00 | 0.00 | 65 | 1018.0 |
| 20260904042703 | 65 | 78 | 3.0 | 3.0 | 0.00 | 0.00 | 0.00 | 66 | 1017.8 |
| 20260904041803 | 65 | 78 | 2.0 | 4.0 | 0.00 | 0.00 | 0.00 | 65 | 1018.0 |
| 20260904040903 | 66 | 43 | 1.0 | 4.0 | 0.00 | 0.00 | 0.00 | 64 | 1018.1 |
| 20260904040003 | 67 | 43 | 1.0 | 2.0 | 0.00 | 0.00 | 0.00 | 63 | 1018.0 |
| 20260904035618 | 67 | 69 | 1.0 | 3.0 | 0.00 | 0.00 | 0.00 | 63 | 1018.0 |
| 20260904034503 | 66 | 83 | 3.0 | 3.0 | 0.00 | 0.00 | 0.00 | 63 | 1017.9 |
| 20260904033603 | 66 | 55 | 1.0 | 3.0 | 0.00 | 0.00 | 0.00 | 63 | 1017.9 |
| 20260904032703 | 67 | 316 | 0.0 | 2.0 | 0.00 | 0.00 | 0.00 | 62 | 1018.2 |
| 20260904030903 | 67 | 60 | 2.0 | 2.0 | 0.00 | 0.00 | 0.00 | 63 | 1018.1 |
| 20260904030004 | 66 | 67 | 1.0 | 2.0 | 0.00 | 0.00 | 0.00 | 62 | 1018.2 |